Content
SEND FEEDBACK

Daily
Averages
Monthly
Summary
Canada

CHARLOTTETOWN, PRINCE EDWARD ISLAND


Home > North America > Canada > Prince Edward Island
Elevation: 181 feet     Latitude: 46 17N     Longitude: 063 08W

WEATHER
 
SELECT A DAY
Number of Records: 195,019;   Date Range: 1/1/95 - 7/30/14
 
SHARE

PRINT THIS DATA

[ ← Previous Day ]
WEATHER ALMANAC - OCTOBER 15, 2013
[ Next Day → ]
[ °C ]   °F
Weather ElementAverageHighLow
Temperature49.6 °F57.2 °F (12:00 pm)35.6 °F (9:34 pm)
Dewpoint44.3 °F50 °F (12:46 am)33.8 °F (9:34 pm)
Humidity82.6 %94 % (1:00 am)47 % (3:00 pm)
Barometer30.22 in30.32 in (11:00 pm)30.15 in (4:00 am)
Wind Speed7.9 mph15 mph (2:00 pm)
Wind Gust21.9 mph (3:00 pm)
Weather ElementAverage
Visibility15 mi
Wind DirectionWNW (278.4 °)

Weather ElementTotal
Precipitation---
Heating Degree Days18.6 (Base 65)
Averaged from 31 records on October 15, 2013
WEATHER CONDITIONS BREAKOUT
WIND DIRECTION BREAKOUT
WEATHER BY HOUR - OCTOBER 15, 2013
[ °C ]   °F
Local TimeTemperatureDewpointHumidityBarometerVisibilityWind DirectionWind SpeedGust SpeedPrecipitationEventsConditions
12:46 AM53.6 °F50.0 °F88 %30.19 in15.0 miWSW (240°)9.2 mphRainLight Rain Showers
1:00 AM51.8 °F50.0 °F94 %30.18 in15.0 miWSW (240°)6.9 mphRainLight Rain Showers
2:00 AM51.8 °F50.0 °F94 %30.17 in15.0 miWSW (240°)11.5 mphRainLight Rain Showers
3:00 AM51.0 °F50.0 °F94 %30.16 in15.0 miWSW (250°)9.2 mphRainLight Rain Showers
3:00 AM51.8 °F50.0 °F94 %30.16 in15.0 miWSW (250°)9.2 mphOvercast
4:00 AM51.8 °F50.0 °F94 %30.15 in15.0 miWest (260°)10.4 mphOvercast
5:00 AM51.8 °F50.0 °F94 %30.16 in15.0 miWSW (250°)9.2 mphOvercast
6:00 AM51.8 °F50.0 °F94 %30.16 in15.0 miWest (270°)6.9 mphOvercast
6:21 AM51.8 °F50.0 °F94 %30.17 in15.0 miWNW (290°)6.9 mphOvercast
7:00 AM51.8 °F50.0 °F94 %30.18 in15.0 miWNW (290°)8.1 mphMostly Cloudy
8:00 AM51.8 °F50.0 °F94 %30.18 in15.0 miWNW (300°)6.9 mphMostly Cloudy
9:00 AM52.0 °F50.0 °F92 %30.21 in15.0 miWNW (300°)6.9 mphMostly Cloudy
9:00 AM51.8 °F50.0 °F94 %30.20 in15.0 miNW (310°)6.9 mphMostly Cloudy
10:00 AM53.6 °F50.0 °F88 %30.21 in15.0 miNNW (330°)10.4 mphMostly Cloudy
10:12 AM55.4 °F50.0 °F82 %30.21 in15.0 miNW (320°)12.7 mphMostly Cloudy
11:00 AM55.4 °F48.2 °F77 %30.22 in15.0 miNNW (340°)10.4 mphMostly Cloudy
12:00 PM57.2 °F48.2 °F72 %30.22 in15.0 miNNW (340°)9.2 mph18.4 mphMostly Cloudy
1:00 PM55.4 °F44.6 °F67 %30.22 in15.0 miNW (310°)11.5 mph17.3 mphMostly Cloudy
2:00 PM55.4 °F41.0 °F58 %30.23 in15.0 miNNW (330°)15.0 mphMostly Cloudy
3:00 PM54.0 °F40.0 °F47 %30.24 in15.0 miNNW (330°)12.7 mphScattered Clouds
3:00 PM53.6 °F39.2 °F58 %30.24 in15.0 miNNW (330°)11.5 mph21.9 mphMostly Cloudy
4:00 PM53.6 °F39.2 °F58 %30.25 in15.0 miNNW (340°)10.4 mphOvercast
5:00 PM50.0 °F37.4 °F62 %30.27 in15.0 miNNW (330°)9.2 mphOvercast
6:00 PM48.2 °F37.4 °F66 %30.27 in15.0 miNNW (340°)4.6 mphOvercast
7:00 PM44.6 °F37.4 °F76 %30.26 in15.0 miNorth (360°)5.8 mphOvercast
8:00 PM39.2 °F37.4 °F93 %30.28 in15.0 miCalmMostly Cloudy
9:00 PM40.0 °F36.0 °F82 %30.30 in15.0 miWSW (250°)2.3 mphClear
9:00 PM41.0 °F35.6 °F81 %30.29 in15.0 miVariable2.3 mphScattered Clouds
9:34 PM35.6 °F33.8 °F93 %30.31 in15.0 miWNW (290°)2.3 mphScattered Clouds
10:00 PM35.6 °F33.8 °F93 %30.31 in15.0 miWNW (300°)3.5 mphScattered Clouds
11:00 PM35.6 °F33.8 °F93 %30.32 in15.0 miWNW (300°)3.5 mphScattered Clouds
Hourly data recorded from CYYG, located miles away from Charlottetown, Prince Edward Island







STORIES FROM OUR PARTNERS